Radiation Dose at Monitoring Post of Fukushima Daini Nuclear Power Station
Date,Time,MP-1(microSv/h),MP-2(microSv/h),MP-3(microSv/h),MP-4(microSv/h),MP-5(microSv/h),MP-6(microSv/h),MP-7(microSv/h),Wind Direction,Wind Velocity(m/s),Rain
2016/12/17,00:00,0.384,0.232,0.398,0.368,0.340,0.190,0.162,west-southwest,4.3,No
2016/12/17,00:10,0.383,0.230,0.398,0.368,0.338,0.191,0.163,west-northwest,3.9,No
2016/12/17,00:20,0.383,0.230,0.397,0.368,0.339,0.190,0.163,west-northwest,2.3,No
2016/12/17,00:30,0.382,0.231,0.398,0.368,0.339,0.191,0.163,west-southwest,0.8,No
2016/12/17,00:40,0.383,0.231,0.397,0.368,0.339,0.191,0.162,south-southwest,1.9,No
2016/12/17,00:50,0.383,0.230,0.397,0.368,0.340,0.190,0.163,south,1.6,No
2016/12/17,01:00,0.382,0.231,0.398,0.368,0.341,0.190,0.163,south-southwest,2.0,No
2016/12/17,01:10,0.381,0.232,0.397,0.368,0.339,0.190,0.163,south,2.3,No
2016/12/17,01:20,0.382,0.231,0.399,0.368,0.340,0.190,0.163,south-southwest,2.6,No
2016/12/17,01:30,0.382,0.230,0.397,0.368,0.340,0.191,0.163,southwest,2.5,No
2016/12/17,01:40,0.381,0.233,0.399,0.368,0.340,0.191,0.163,west,3.1,No
2016/12/17,01:50,0.383,0.231,0.398,0.369,0.339,0.190,0.163,west,4.6,No
2016/12/17,02:00,0.383,0.232,0.399,0.367,0.339,0.191,0.164,west-northwest,5.9,No
2016/12/17,02:10,0.383,0.232,0.397,0.368,0.339,0.190,0.163,west-northwest,6.3,No
2016/12/17,02:20,0.383,0.231,0.397,0.367,0.339,0.189,0.162,west,9.9,No
2016/12/17,02:30,0.383,0.229,0.396,0.368,0.340,0.190,0.163,west,7.3,No
2016/12/17,02:40,0.381,0.231,0.398,0.368,0.339,0.191,0.163,west-southwest,4.2,No
2016/12/17,02:50,0.381,0.232,0.399,0.366,0.338,0.190,0.163,south-southwest,6.7,No
2016/12/17,03:00,0.383,0.229,0.397,0.367,0.340,0.190,0.163,south-southwest,7.8,No
2016/12/17,03:10,0.383,0.230,0.397,0.369,0.340,0.190,0.162,south,8.9,No
2016/12/17,03:20,0.382,0.231,0.397,0.368,0.338,0.189,0.162,south-southwest,8.4,No
2016/12/17,03:30,0.383,0.231,0.399,0.367,0.340,0.190,0.163,south-southwest,7.3,No
2016/12/17,03:40,0.382,0.231,0.398,0.368,0.339,0.190,0.164,south-southwest,8.2,No
2016/12/17,03:50,0.383,0.232,0.398,0.370,0.340,0.192,0.163,south-southwest,9.1,No
2016/12/17,04:00,0.383,0.232,0.398,0.370,0.340,0.190,0.163,south-southwest,8.7,No
2016/12/17,04:10,0.380,0.230,0.397,0.368,0.339,0.189,0.163,south-southwest,9.2,No
2016/12/17,04:20,0.383,0.230,0.397,0.368,0.339,0.190,0.163,south-southwest,8.4,No
2016/12/17,04:30,0.381,0.231,0.400,0.368,0.339,0.190,0.164,south-southwest,6.7,No
2016/12/17,04:40,0.382,0.230,0.399,0.368,0.339,0.192,0.163,south-southwest,7.6,No
2016/12/17,04:50,0.382,0.231,0.396,0.369,0.339,0.190,0.163,south-southwest,7.3,No
2016/12/17,05:00,0.382,0.231,0.398,0.369,0.339,0.190,0.162,south-southwest,7.3,No
2016/12/17,05:10,0.380,0.231,0.398,0.368,0.340,0.191,0.163,south-southwest,5.6,No
2016/12/17,05:20,0.381,0.230,0.398,0.367,0.338,0.191,0.163,south,6.7,No
2016/12/17,05:30,0.381,0.231,0.396,0.369,0.339,0.191,0.164,south,6.4,No
2016/12/17,05:40,0.383,0.232,0.398,0.367,0.338,0.191,0.162,south,6.0,No
2016/12/17,05:50,0.382,0.231,0.398,0.368,0.338,0.191,0.162,south-southwest,5.8,No
2016/12/17,06:00,0.382,0.231,0.398,0.368,0.339,0.191,0.163,south-southwest,6.7,No
2016/12/17,06:10,0.380,0.231,0.399,0.368,0.338,0.190,0.162,south,5.9,No
2016/12/17,06:20,0.382,0.231,0.396,0.368,0.340,0.190,0.162,south,4.8,No
2016/12/17,06:30,0.382,0.231,0.397,0.368,0.340,0.189,0.162,south,5.9,No
2016/12/17,06:40,0.382,0.231,0.397,0.368,0.340,0.191,0.163,south,5.2,No
2016/12/17,06:50,0.381,0.232,0.399,0.366,0.338,0.190,0.162,south-southwest,5.9,No
2016/12/17,07:00,0.381,0.231,0.398,0.368,0.338,0.190,0.163,south-southwest,5.6,No
2016/12/17,07:10,0.383,0.231,0.397,0.368,0.339,0.190,0.162,south-southwest,5.5,No
2016/12/17,07:20,0.383,0.230,0.398,0.369,0.340,0.190,0.163,south,4.7,No
2016/12/17,07:30,0.381,0.230,0.398,0.368,0.339,0.191,0.163,south,5.3,No
2016/12/17,07:40,0.382,0.230,0.398,0.368,0.340,0.189,0.163,south-southwest,4.1,No
2016/12/17,07:50,0.383,0.231,0.396,0.369,0.340,0.190,0.163,south-southwest,5.2,No
2016/12/17,08:00,0.383,0.230,0.397,0.368,0.340,0.191,0.163,south-southwest,5.0,No
2016/12/17,08:10,0.381,0.230,0.398,0.367,0.340,0.190,0.163,south-southwest,4.3,No
2016/12/17,08:20,0.382,0.230,0.398,0.370,0.340,0.190,0.163,south,3.5,No
2016/12/17,08:30,0.382,0.231,0.397,0.368,0.340,0.190,0.161,south,4.6,No
2016/12/17,08:40,0.382,0.231,0.398,0.366,0.339,0.191,0.162,south-southwest,3.1,No
2016/12/17,08:50,0.381,0.230,0.398,0.368,0.339,0.190,0.163,south-southwest,1.7,No
2016/12/17,09:00,0.383,0.230,0.399,0.367,0.340,0.189,0.162,south,1.8,No
2016/12/17,09:10,0.383,0.231,0.397,0.368,0.339,0.190,0.162,south-southwest,2.2,No
2016/12/17,09:20,0.382,0.231,0.396,0.367,0.340,0.190,0.162,south-southeast,3.1,No
2016/12/17,09:30,0.381,0.230,0.399,0.367,0.339,0.190,0.163,south-southwest,2.6,No
2016/12/17,09:40,0.382,0.230,0.397,0.369,0.340,0.191,0.162,south,3.0,No
2016/12/17,09:50,0.381,0.230,0.396,0.366,0.340,0.190,0.162,west-southwest,1.7,No
2016/12/17,10:00,0.381,0.230,0.396,0.369,0.337,0.190,0.163,west,5.1,No
2016/12/17,10:10,0.379,0.231,0.397,0.369,0.339,0.190,0.162,west,5.4,No
2016/12/17,10:20,0.382,0.231,0.398,0.367,0.338,0.190,0.163,west-northwest,3.9,No
2016/12/17,10:30,0.379,0.231,0.397,0.369,0.338,0.190,0.163,west-northwest,4.3,No
2016/12/17,10:40,0.380,0.230,0.397,0.366,0.341,0.190,0.163,west,4.8,No
2016/12/17,10:50,0.381,0.231,0.395,0.367,0.339,0.190,0.164,west-northwest,3.3,No
2016/12/17,11:00,0.379,0.232,0.396,0.368,0.340,0.190,0.164,northwest,3.8,No
2016/12/17,11:10,0.380,0.229,0.397,0.367,0.337,0.191,0.163,northwest,3.9,No
2016/12/17,11:20,0.382,0.232,0.395,0.369,0.337,0.191,0.163,north-northwest,3.1,No
2016/12/17,11:30,0.381,0.232,0.398,0.367,0.342,0.190,0.163,north-northwest,2.7,No
2016/12/17,11:40,0.382,0.231,0.398,0.369,0.338,0.190,0.163,west-northwest,3.3,No
2016/12/17,11:50,0.380,0.231,0.396,0.366,0.340,0.191,0.163,west,6.3,No
2016/12/17,12:00,0.381,0.231,0.396,0.371,0.338,0.191,0.162,west-northwest,6.1,No
2016/12/17,12:10,0.379,0.231,0.394,0.366,0.339,0.191,0.163,west-northwest,3.8,No
2016/12/17,12:20,0.379,0.232,0.396,0.370,0.340,0.191,0.162,west-northwest,5.3,No
2016/12/17,12:30,0.382,0.231,0.395,0.366,0.340,0.191,0.163,northwest,6.0,No
2016/12/17,12:40,0.379,0.230,0.397,0.370,0.341,0.191,0.163,northwest,6.9,No
2016/12/17,12:50,0.382,0.231,0.397,0.368,0.341,0.191,0.163,northwest,8.2,No
2016/12/17,13:00,0.383,0.230,0.398,0.369,0.342,0.191,0.163,northwest,6.1,No
2016/12/17,13:10,0.381,0.231,0.399,0.368,0.343,0.191,0.164,northwest,8.3,No
2016/12/17,13:20,0.384,0.232,0.398,0.368,0.340,0.192,0.163,west-northwest,7.7,No
2016/12/17,13:30,0.382,0.231,0.399,0.370,0.343,0.191,0.164,west-northwest,5.7,No
2016/12/17,13:40,0.383,0.232,0.394,0.368,0.342,0.191,0.163,northwest,6.2,No
2016/12/17,13:50,0.382,0.231,0.397,0.369,0.339,0.192,0.163,northwest,4.1,No
2016/12/17,14:00,0.383,0.231,0.398,0.367,0.342,0.191,0.163,west,6.8,No
2016/12/17,14:10,0.384,0.231,0.397,0.370,0.339,0.191,0.163,west-northwest,5.6,No
2016/12/17,14:20,0.383,0.231,0.398,0.368,0.339,0.191,0.163,west-northwest,4.7,No
2016/12/17,14:30,0.383,0.232,0.398,0.370,0.342,0.190,0.164,west,4.0,No
2016/12/17,14:40,0.383,0.233,0.396,0.370,0.342,0.192,0.163,west-northwest,6.2,No
2016/12/17,14:50,0.382,0.231,0.399,0.369,0.340,0.190,0.164,west-northwest,6.4,No
2016/12/17,15:00,0.384,0.232,0.399,0.371,0.342,0.191,0.164,west-northwest,7.6,No
2016/12/17,15:10,0.383,0.232,0.397,0.369,0.341,0.192,0.165,west,6.2,No
2016/12/17,15:20,0.383,0.232,0.400,0.369,0.341,0.191,0.164,north-northwest,2.0,No
2016/12/17,15:30,0.382,0.232,0.399,0.371,0.343,0.191,0.164,west-northwest,3.3,No
2016/12/17,15:40,0.382,0.231,0.398,0.370,0.341,0.191,0.163,west-northwest,2.3,No
2016/12/17,15:50,0.382,0.231,0.400,0.370,0.341,0.191,0.164,northwest,2.6,No
2016/12/17,16:00,0.384,0.233,0.398,0.371,0.342,0.191,0.164,west-northwest,3.0,No
2016/12/17,16:10,0.383,0.232,0.397,0.369,0.340,0.191,0.164,west,4.2,No
2016/12/17,16:20,0.383,0.232,0.400,0.369,0.342,0.192,0.164,west-northwest,4.1,No
2016/12/17,16:30,0.385,0.231,0.401,0.371,0.342,0.192,0.163,northwest,3.9,No
2016/12/17,16:40,0.384,0.232,0.401,0.370,0.341,0.192,0.164,west-northwest,3.5,No
2016/12/17,16:50,0.383,0.231,0.398,0.369,0.341,0.191,0.163,west-northwest,4.3,No
2016/12/17,17:00,0.383,0.233,0.400,0.369,0.341,0.191,0.163,northwest,5.8,No
2016/12/17,17:10,0.383,0.231,0.399,0.370,0.342,0.192,0.163,west-northwest,5.5,No
2016/12/17,17:20,0.385,0.232,0.399,0.370,0.341,0.192,0.163,west-northwest,5.7,No
2016/12/17,17:30,0.383,0.231,0.401,0.370,0.341,0.193,0.164,west-northwest,4.5,No
2016/12/17,17:40,0.380,0.232,0.400,0.371,0.341,0.192,0.164,northwest,4.5,No
2016/12/17,17:50,0.383,0.232,0.399,0.369,0.340,0.191,0.164,northwest,4.8,No
2016/12/17,18:00,0.384,0.232,0.398,0.369,0.341,0.191,0.163,north-northwest,3.1,No
2016/12/17,18:10,0.383,0.231,0.401,0.369,0.341,0.192,0.164,north,2.4,No
2016/12/17,18:20,0.385,0.232,0.397,0.370,0.341,0.190,0.164,north-northeast,4.2,No
2016/12/17,18:30,0.383,0.231,0.397,0.370,0.341,0.191,0.163,north,3.2,No
2016/12/17,18:40,0.384,0.232,0.398,0.371,0.341,0.192,0.164,north,3.9,No
2016/12/17,18:50,0.384,0.232,0.399,0.370,0.341,0.192,0.164,north,3.1,No
2016/12/17,19:00,0.383,0.231,0.399,0.370,0.340,0.192,0.164,north,2.9,No
2016/12/17,19:10,0.384,0.232,0.398,0.369,0.342,0.191,0.163,northwest,3.3,No
2016/12/17,19:20,0.384,0.231,0.400,0.370,0.340,0.191,0.163,northwest,4.1,No
2016/12/17,19:30,0.382,0.231,0.401,0.371,0.340,0.192,0.165,north-northwest,2.6,No
2016/12/17,19:40,0.382,0.233,0.398,0.370,0.342,0.193,0.163,north,1.7,No
2016/12/17,19:50,0.382,0.232,0.399,0.369,0.341,0.192,0.164,west-northwest,1.2,No
2016/12/17,20:00,0.384,0.233,0.398,0.370,0.341,0.192,0.164,northwest,1.7,No
2016/12/17,20:10,0.382,0.233,0.400,0.371,0.339,0.192,0.163,northeast,1.9,No
2016/12/17,20:20,0.382,0.231,0.399,0.371,0.340,0.192,0.163,northeast,0.8,No
2016/12/17,20:30,0.384,0.232,0.397,0.368,0.342,0.191,0.164,-,CALM,No
2016/12/17,20:40,0.384,0.233,0.399,0.370,0.339,0.191,0.164,north-northeast,0.6,No
2016/12/17,20:50,0.382,0.232,0.400,0.371,0.339,0.192,0.163,-,CALM,No
2016/12/17,21:00,0.383,0.231,0.399,0.370,0.340,0.190,0.164,west,1.7,No
2016/12/17,21:10,0.383,0.232,0.398,0.370,0.341,0.192,0.164,north-northwest,4.3,No
2016/12/17,21:20,0.383,0.232,0.399,0.372,0.340,0.191,0.163,north-northwest,3.9,No
2016/12/17,21:30,0.382,0.232,0.400,0.370,0.341,0.191,0.164,north,3.6,No
2016/12/17,21:40,0.385,0.232,0.399,0.371,0.341,0.191,0.163,north-northeast,2.3,No
2016/12/17,21:50,0.384,0.231,0.398,0.369,0.340,0.191,0.163,north,1.9,No
2016/12/17,22:00,0.384,0.232,0.399,0.369,0.341,0.191,0.164,north-northeast,3.1,No
2016/12/17,22:10,0.383,0.230,0.399,0.371,0.341,0.192,0.163,north,2.4,No
2016/12/17,22:20,0.383,0.232,0.400,0.370,0.340,0.192,0.164,north,3.6,No
2016/12/17,22:30,0.384,0.232,0.399,0.369,0.340,0.191,0.164,north,4.2,No
2016/12/17,22:40,0.385,0.230,0.398,0.370,0.341,0.191,0.164,north,4.0,No
2016/12/17,22:50,0.384,0.233,0.400,0.371,0.340,0.191,0.162,north,3.4,No
2016/12/17,23:00,0.383,0.231,0.398,0.370,0.341,0.191,0.163,north-northeast,2.6,No
2016/12/17,23:10,0.383,0.233,0.399,0.370,0.340,0.192,0.164,north,2.8,No
2016/12/17,23:20,0.384,0.232,0.397,0.372,0.341,0.191,0.164,north,2.2,No
2016/12/17,23:30,0.384,0.232,0.397,0.371,0.340,0.191,0.164,north,2.0,No
2016/12/17,23:40,0.384,0.233,0.399,0.371,0.340,0.191,0.164,north,1.5,No
2016/12/17,23:50,0.382,0.233,0.400,0.371,0.341,0.192,0.164,north,1.0,No
